Retour au catalogue

STARLINK-35379

ActifCommunicationsVLEO
NORAD 66084·PAYLOAD·🇺🇸 United States

Lancé Oct 19, 2025 depuis Cape Canaveral Space Force Station

Loading…

Prochains Passages (prochaines 24 heures)

TLE

FraisSource: CelesTrak SupGP

Époque: Sep 14, 2026, 21:35 UTC

1 66084C 25235AC  26257.89979167 -.00005269  00000+0 -15572-3 0  2572
2 66084  53.1592  85.8517 0001204  81.9321  81.6249 15.34384557    12

Suivez STARLINK-35379 en temps réel avec AllMySat

Download on the App Store